Location: Caltech
(34.1382°N, 118.1253°W)
Time: 14:38:07
(UTC-07:00)

Iridium 62 - Visible Passes

Search period start: 31 July 2014 00:00
Search period end: 10 August 2014 00:00
Orbit: 776 x 779 km, 86.4° (Epoch: 31 July)

Date Brightness Start Highest point End Pass type
(mag) Time Alt. Az. Time Alt. Az. Time Alt. Az.
31 Jul 7.7 00:44:20 26° N 00:44:20 26° N 00:46:33 10° N visible
01 Aug 7.9 00:10:55 22° NNE 00:10:55 22° NNE 00:12:50 10° NNE visible
01 Aug 8.4 01:51:23 12° NW 01:51:23 12° NW 01:51:58 10° NW visible
01 Aug 8.2 23:37:29 15° NE 23:37:29 15° NE 23:38:39 10° NNE visible
02 Aug 8.1 01:17:57 18° NNW 01:17:57 18° NNW 01:19:38 10° NNW visible
03 Aug 7.9 00:44:32 24° NNW 00:44:32 24° NNW 00:46:34 10° N visible
04 Aug 7.8 00:11:05 24° N 00:11:05 24° N 00:13:05 10° N visible
04 Aug 8.0 23:37:39 19° NNE 23:37:39 19° NNE 23:39:12 10° NNE visible
05 Aug 8.4 01:18:07 14° NW 01:18:07 14° NW 01:19:08 10° NNW visible
05 Aug 8.3 23:04:12 12° NE 23:04:12 12° NE 23:04:44 10° NE visible
06 Aug 8.1 00:44:40 20° NNW 00:44:40 20° NNW 00:46:26 10° NNW visible
07 Aug 7.9 00:11:13 24° N 00:11:13 24° N 00:13:11 10° N visible
07 Aug 7.9 23:37:45 22° NNE 23:37:45 22° NNE 23:39:33 10° NNE visible
08 Aug 8.1 23:04:17 16° NE 23:04:17 16° NE 23:05:29 10° NNE visible
09 Aug 8.3 00:44:45 16° NW 00:44:45 16° NW 00:46:07 10° NNW visible
